Deering, AK

6:10 AM AKDT on May 30, 2017 (GMT -0800)
Deering (New)

Weather History for PADE - February, 2013

Change the Weather History Date:

Tuesday, February 26, 2013

  Actual Average (PAOT) Record (PAOT)
Temperature  
Mean Temperature -26 °F -  
Max Temperature -14 °F 8 °F 35 °F (2015)
Min Temperature -36 °F -6 °F -41 °F (1956)
Degree Days  
Heating Degree Days 90    
Moisture  
Dew Point -28 °F    
Average Humidity 68    
Maximum Humidity 73    
Minimum Humidity 63    
Precipitation  
Precipitation 0.00 in - - ()
Sea Level Pressure  
Sea Level Pressure 29.96 in    
Wind  
Wind Speed 5 mph (SW)    
Max Wind Speed 15 mph    
Max Gust Speed -    
Visibility 10 miles    
Events      
Averages and records for this station are not official NWS values.
T = Trace of Precipitation, MM = Missing Value Source: NWS Daily Summary

Daily Weather History Graph

Daily Weather History Graph

Search for Another Location

Airport or City:

Trip Planner

Search our weather history database for the weather conditions in past years. The results will help you decide how hot, cold, wet, or windy it might be!

Date:

Astronomy

Feb. 26, 2013 Rise Set
Actual Time 9:13 AM AKST 6:55 PM AKST
Civil Twilight 8:21 AM AKST 7:48 PM AKST
Nautical Twilight 7:21 AM AKST 8:47 PM AKST
Astronomical Twilight 6:21 AM AKST 9:48 PM AKST
Moon 9:24 PM AKST (2/26) 8:38 AM AKST (2/26)
Length of Visible Light 11h 27m
Length of Day
9h 42m
Full, 99% of the Moon is Illuminated
Feb 26
Full
Mar 4
Last Quarter
Mar 11
New
Mar 19
First Quarter
Mar 27
Full

Hourly Weather History & Observations

Time (AKST) Temp. Windchill Dew Point Humidity Pressure Visibility Wind Dir Wind Speed Gust Speed Precip Events Conditions
12:53 AM -36.0 °F -49.0 °F - N/A% 30.10 in 10.0 mi SW 3.5 mph - N/A   Clear
1:53 AM -36.0 °F -52.0 °F - N/A% 30.11 in 10.0 mi SW 4.6 mph - N/A   Clear
3:53 AM -36.9 °F -50.1 °F - N/A% 30.11 in 10.0 mi WSW 3.5 mph - N/A   Clear
4:53 AM -36.0 °F - - N/A% 30.10 in 10.0 mi Calm Calm - N/A   Clear
5:53 AM -35.0 °F -47.8 °F - N/A% 30.09 in 10.0 mi WSW 3.5 mph - N/A   Clear
6:53 AM -36.0 °F -49.0 °F - N/A% 30.08 in 10.0 mi SW 3.5 mph - N/A   Clear
7:53 AM -36.0 °F - - N/A% 30.06 in 8.0 mi Calm Calm - N/A   Clear
8:53 AM -35.0 °F -47.8 °F - N/A% 30.04 in 10.0 mi SSW 3.5 mph - N/A   Clear
9:53 AM -36.0 °F -49.0 °F - N/A% 30.03 in 10.0 mi South 3.5 mph - N/A   Clear
10:53 AM -33.0 °F -48.4 °F - N/A% 30.02 in 10.0 mi SSW 4.6 mph - N/A   Clear
11:53 AM -29.9 °F -42.0 °F - N/A% 30.00 in 10.0 mi SW 3.5 mph - N/A   Clear
12:53 PM -27.9 °F -48.2 °F -34.1 °F 73% 29.99 in 10.0 mi SW 8.1 mph - N/A   Clear
1:53 PM -26.0 °F -42.4 °F -32.1 °F 73% 29.97 in 10.0 mi SSW 5.8 mph - N/A   Clear
2:53 PM -24.0 °F -43.4 °F -31.0 °F 70% 29.95 in 10.0 mi SW 8.1 mph - N/A   Clear
3:53 PM -20.9 °F -38.1 °F -29.0 °F 66% 29.92 in 10.0 mi SW 6.9 mph - N/A   Clear
4:53 PM -20.9 °F -41.0 °F -29.0 °F 66% 29.89 in 10.0 mi SSW 9.2 mph - N/A   Clear
5:53 PM -20.9 °F -39.7 °F -29.9 °F 63% 29.87 in 10.0 mi WSW 8.1 mph - N/A   Mostly Cloudy
6:53 PM -20.0 °F -39.9 °F -29.0 °F 63% 29.85 in 10.0 mi SW 9.2 mph - N/A   Clear
7:53 PM -16.1 °F -38.2 °F -25.1 °F 64% 29.81 in 10.0 mi SW 12.7 mph - N/A   Clear
8:53 PM -17.0 °F -38.4 °F -25.1 °F 67% 29.80 in 10.0 mi WSW 11.5 mph - N/A   Clear
9:53 PM -16.1 °F -36.2 °F -23.1 °F 71% 29.78 in 10.0 mi WSW 10.4 mph - N/A   Clear
10:53 PM -15.0 °F -33.7 °F -22.0 °F 71% 29.77 in 10.0 mi SW 9.2 mph - N/A   Clear
11:53 PM -14.1 °F -37.4 °F -22.0 °F 68% 29.73 in 10.0 mi West 15.0 mph - N/A   Clear